CAPE
0 0 0 0 0 0 0 0 0 0 0 0 0 0 0 0 0 0 0 0 0 0 0 0 0 0 0 0 0 0 0 0 0 0 0 0 0 0 0 0 0 0 0 0 0
0 0 0 0 0 0 0 0 0 0 0 0 0 0 0 0 0 0 0 0 0 0 0 0 0 0 0 0 0 0 0 0 0 0 0 0 0 0 0 0 0 0 0 0 0
0 0 0 0 0 0 0 0 0 0 0 0 0 0 0 0 0 0 0 0 0 0 0 0 0 0 0 0 0 0 0 0 0 0 0 0 0 0 0 0 0 0 0 0 0
0 0 0 0 0 0 0 0 0 0 0 0 0 0 0 0 0 0 0 0 0 0 0 0 0 0 0 0 0 0 0 0 0 0 0 0 0 0 0 0 0 0 0 0 0
0 0 0 0 0 0 0 0 0 0 0 0 0 0 0 0 0 0 0 0 0 0 0 0 0 0 0 0 0 0 0 0 0 0 0 0 0 0 0 0 0 0 0 0 0
0 0 0 0 0 0 0 0 0 0 0 0 0 0 0 0 0 0 0 0 0 0 0 0 0 0 0 0 0 0 0 0 0 0 0 0 0 0 0 0 0 0 0 0 0
0 0 0 0 0 0 0 0 0 0 0 0 0 0 0 0 0 0 0 0 0 0 0 0 0 0 0 0 0 0 0 0 0 0 0 0 0 0 0 0 0 0 0 0 0
0 0 0 0 0 0 0 0 0 0 0 0 0 0 0 0 0 0 0 0 0 0 0 0 0 0 0 0 0 0 0 0 0 0 0 0 0 0 0 0 0 0 0 0 0
1 0 0 0 0 0 0 0 0 0 0 0 0 0 0 0 0 0 0 0 0 0 0 0 0 0 0 0 0 0 0 0 0 0 0 0 0 0 0 0 0 0 0 0 0
0 0 0 0 0 0 0 0 0 0 0 0 0 0 0 0 0 0 0 0 0 0 0 0 0 0 0 0 0 0 0 0 0 0 0 0 0 0 0 0 0 0 0 0 0
0 0 1 0 0 0 0 0 0 0 0 0 0 0 0 0 0 0 0 0 0 0 0 0 0 0 0 0 0 0 0 0 0 0 0 0 0 0 0 0 0 0 0 0 0
1 1 0 1 0 0 0 0 0 0 0 0 0 0 0 0 0 0 0 0 0 0 0 0 0 0 0 0 0 0 0 0 0 0 0 0 0 0 0 0 0 0 0 0 0
0 0 1 0 0 0 0 0 0 0 0 0 0 0 0 0 0 0 0 0 0 0 0 0 0 0 0 0 0 0 0 0 0 0 0 0 0 0 0 0 0 0 0 0 0
0 1 1 0 0 0 0 0 0 0 0 0 0 0 0 0 0 0 0 0 0 0 0 0 0 0 0 0 0 0 0 0 0 0 0 0 0 0 0 0 0 0 0 0 0
0 0 3 0 0 0 0 0 0 0 0 0 0 0 0 0 0 0 0 0 0 0 0 0 0 0 0 0 0 0 0 0 0 0 0 0 0 0 0 0 0 0 0 0 0
0 0 4 0 0 0 0 0 0 0 0 0 0 0 0 0 0 0 0 0 0 0 0 0 0 0 0 0 0 0 0 0 0 0 0 0 0 0 0 0 0 0 0 0 0
0 0 5 0 0 0 0 0 0 0 0 0 0 0 0 0 0 0 0 0 0 0 0 0 0 0 0 0 0 0 0 0 0 0 0 0 0 0 0 0 0 0 0 0 0
0 0 3 0 0 0 0 0 0 0 0 0 0 0 0 0 0 0 0 0 0 0 0 0 0 0 0 0 0 0 0 0 0 0 0 0 0 0 0 0 0 0 0 0 0
0 0 0 0 0 0 0 0 0 0 0 0 0 0 0 0 0 0 0 0 0 0 0 0 0 0 0 0 0 0 0 0 0 0 0 0 0 0 0 0 0 0 0 0 0
1 5 10 0 0 0 0 0 0 0 0 0 0 0 0 0 0 0 0 0 0 0 0 0 0 0 0 0 0 0 0 0 0 0 0 0 0 0 0 0 0 0 0 0 0
1 5 0 0 0 0 0 0 0 0 0 0 0 0 0 0 0 0 0 0 0 0 0 0 0 0 0 0 0 0 0 0 0 0 0 0 0 0 0 0 0 0 0 0 0
3 3 0 0 2 1 0 0 0 0 0 0 0 0 0 0 0 0 0 0 0 0 0 0 0 0 0 0 0 0 0 0 0 0 0 0 0 0 0 0 0 0 0 0 0
0 0 1 0 0 0 0 0 0 0 0 0 0 0 0 0 0 0 0 0 0 0 0 0 0 0 0 0 0 0 0 0 0 0 0 0 0 0 0 0 0 0 0 0 0
0 0 0 0 1 0 0 0 0 0 0 0 0 0 0 0 0 0 0 0 0 0 0 0 0 0 0 0 0 0 0 0 0 0 0 0 0 0 0 0 0 0 0 0 0
0 4 0 1 1 1 0 0 0 0 0 0 0 0 0 0 0 0 0 0 0 0 0 0 0 0 0 0 0 0 0 0 0 0 0 0 0 0 0 0 0 0 0 0 0
0 3 6 1 0 2 1 0 0 0 0 0 0 0 0 0 0 0 0 0 0 0 0 0 0 0 0 0 0 0 0 0 0 0 0 0 0 0 0 0 0 0 0 0 0
3 0 0 0 2 1 1 0 0 0 0 0 0 0 0 0 0 0 0 0 0 0 0 0 0 0 0 0 0 0 0 0 0 0 0 0 0 0 0 0 0 0 0 0 0
CIN
-0 -0 -0 -0 -0 -0 -0 -0 -0 -0 -0 -0 -0 -0 -0 -0 -0 -0 -0 -0 -0 -0 -0 -0 -0 -0 -0 -0 -0 -0 -0 -0 -0 -0 -0 -0 -0 -0 -0 -0 -0 -0 -0 -0 -0
-0 -0 -0 -0 -0 -0 -0 -0 -0 -0 -0 -0 -0 -0 -0 -0 -0 -0 -0 -0 -0 -0 -0 -0 -0 -0 -0 -0 -0 -0 -0 -0 -0 -0 -0 -0 -0 -0 -0 -0 -0 -0 -0 -0 -0
-0 -0 -0 -0 -0 -0 -0 -0 -0 -0 -0 -0 -0 -0 -0 -0 -0 -0 -0 -0 -0 -0 -0 -0 -0 -0 -0 -0 -0 -0 -0 -0 -0 -0 -0 -0 -0 -0 -0 -0 -0 -0 -0 -0 -0
-0 -0 -0 -0 -0 -0 -0 -0 -0 -0 -0 -0 -0 -0 -0 -0 -0 -0 -0 -0 -0 -0 -0 -0 -0 -0 -0 -0 -0 -0 -0 -0 -0 -0 -0 -0 -0 -0 -0 -0 -0 -0 -0 -0 -0
-0 -0 -0 -0 -0 -0 -0 -0 -0 -0 -0 -0 -0 -0 -0 -0 -0 -0 -0 -0 -0 -0 -0 -0 -0 -0 -0 -0 -0 -0 -0 -0 -0 -0 -0 -0 -0 -0 -0 -0 -0 -0 -0 -0 -0
-0 -0 -0 -0 -0 -0 -0 -0 -0 -0 -0 -0 -0 -0 -0 -0 -0 -0 -0 -0 -0 -0 -0 -0 -0 -0 -0 -0 -0 -0 -0 -0 -0 -0 -0 -0 -0 -0 -0 -0 -0 -0 -0 -0 -0
-0 -0 -0 -0 -0 -0 -0 -0 -0 -0 -0 -0 -0 -0 -0 -0 -0 -0 -0 -0 -0 -0 -0 -0 -0 -0 -0 -0 -0 -0 -0 -0 -0 -0 -0 -0 -0 -0 -0 -0 -0 -0 -0 -0 -0
-0 -0 -0 -0 -0 -0 -0 -0 -0 -0 -0 -0 -0 -0 -0 -0 -0 -0 -0 -0 -0 -0 -0 -0 -0 -0 -0 -0 -0 -0 -0 -0 -0 -0 -0 -0 -0 -0 -0 -0 -0 -0 -0 -0 -0
-0 -0 -0 -0 -0 -0 -0 -0 -0 -0 -0 -0 -0 -0 -0 -0 -0 -0 -0 -0 -0 -0 -0 -0 -0 -0 -0 -0 -0 -0 -0 -0 -0 -0 -0 -0 -0 -0 -0 -0 -0 -0 -0 -0 -0
-0 -0 -0 -0 -0 -0 -0 -0 -0 -0 -0 -0 -0 -0 -0 -0 -0 -0 -0 -0 -0 -0 -0 -0 -0 -0 -0 -0 -0 -0 -0 -0 -0 -0 -0 -0 -0 -0 -0 -0 -0 -0 -0 -0 -0
-0 -0 -0 -0 -0 -0 -0 -0 -0 -0 -0 -0 -0 -0 -0 -0 -0 -0 -0 -0 -0 -0 -0 -0 -0 -0 -0 -0 -0 -0 -0 -0 -0 -0 -0 -0 -0 -0 -0 -0 -0 -0 -0 -0 -0
-0 -0 -0 -0 -0 -0 -0 -0 -0 -0 -0 -0 -0 -0 -0 -0 -0 -0 -0 -0 -0 -0 -0 -0 -0 -0 -0 -0 -0 -0 -0 -0 -0 -0 -0 -0 -0 -0 -0 -0 -0 -0 -0 -0 -0
-0 -0 -0 -0 -0 -0 -0 -0 -0 -0 -0 -0 -0 -0 -0 -0 -0 -0 -0 -0 -0 -0 -0 -0 -0 -0 -0 -0 -0 -0 -0 -0 -0 -0 -0 -0 -0 -0 -0 -0 -0 -0 -0 -0 -0
-0 -0 -0 -0 -0 -0 -0 -0 -0 -0 -0 -0 -0 -0 -0 -0 -0 -0 -0 -0 -0 -0 -0 -0 -0 -0 -0 -0 -0 -0 -0 -0 -0 -0 -0 -0 -0 -0 -0 -0 -0 -0 -0 -0 -0
-0 -0 -1 -0 -0 -0 -0 -0 -0 -0 -0 -0 -0 -0 -0 -0 -0 -0 -0 -0 -0 -0 -0 -0 -0 -0 -0 -0 -0 -0 -0 -0 -0 -0 -0 -0 -0 -0 -0 -0 -0 -0 -0 -0 -0
-0 -0 -6 -0 -0 -0 -0 -0 -0 -0 -0 -0 -0 -0 -0 -0 -0 -0 -0 -0 -0 -0 -0 -0 -0 -0 -0 -0 -0 -0 -0 -0 -0 -0 -0 -0 -0 -0 -0 -0 -0 -0 -0 -0 -0
-9 -0 -6 -0 -0 -0 -0 -0 -0 -0 -0 -0 -0 -0 -0 -0 -0 -0 -0 -0 -0 -0 -0 -0 -0 -0 -0 -0 -0 -0 -0 -0 -0 -0 -0 -0 -0 -0 -0 -0 -0 -0 -0 -0 -0
-0 -0 -13 -0 -0 -0 -0 -0 -0 -0 -0 -0 -0 -0 -0 -0 -0 -0 -0 -0 -0 -0 -0 -0 -0 -0 -0 -0 -0 -0 -0 -0 -0 -0 -0 -0 -0 -0 -0 -0 -0 -0 -0 -0 -0
-0 -0 -1 -2 -0 -0 -0 -0 -0 -0 -0 -0 -0 -0 -0 -0 -0 -0 -0 -0 -0 -0 -0 -0 -0 -0 -0 -0 -0 -0 -0 -0 -0 -0 -0 -0 -0 -0 -0 -0 -0 -0 -0 -0 -0
-6 -1 -0 -15 -0 -0 -0 -0 -0 -0 -0 -0 -0 -0 -0 -0 -0 -0 -0 -0 -0 -0 -0 -0 -0 -0 -0 -0 -0 -0 -0 -0 -0 -0 -0 -0 -0 -0 -0 -0 -0 -0 -0 -0 -0
-0 -0 -0 -0 -0 -0 -0 -0 -0 -0 -0 -0 -0 -0 -0 -0 -0 -0 -0 -0 -0 -0 -0 -0 -0 -0 -0 -0 -0 -0 -0 -0 -0 -0 -0 -0 -0 -0 -0 -0 -0 -0 -0 -0 -0
-0 -0 -0 -0 -0 -0 -0 -0 -0 -0 -0 -0 -0 -0 -0 -0 -0 -0 -0 -0 -0 -0 -0 -0 -0 -0 -0 -0 -0 -0 -0 -0 -0 -0 -0 -0 -0 -0 -0 -0 -0 -0 -0 -0 -0
-0 -0 -0 -0 -0 -0 -0 -0 -0 -0 -0 -0 -0 -0 -0 -0 -0 -0 -0 -0 -0 -0 -0 -0 -0 -0 -0 -0 -0 -0 -0 -0 -0 -0 -0 -0 -0 -0 -0 -0 -0 -0 -0 -0 -0
-0 -0 -0 -0 -0 -0 -0 -0 -0 -0 -0 -0 -0 -0 -0 -0 -0 -0 -0 -0 -0 -0 -0 -0 -0 -0 -0 -0 -0 -0 -0 -0 -0 -0 -0 -0 -0 -0 -0 -0 -0 -0 -0 -0 -0
-0 -0 -0 -0 -0 -0 -0 -0 -0 -0 -0 -0 -0 -0 -0 -0 -0 -0 -0 -0 -0 -0 -0 -0 -0 -0 -0 -0 -0 -0 -0 -0 -0 -0 -0 -0 -0 -0 -0 -0 -0 -0 -0 -0 -0
-0 -0 -0 -0 -0 -0 -0 -0 -0 -0 -0 -0 -0 -0 -0 -0 -0 -0 -0 -0 -0 -0 -0 -0 -0 -0 -0 -0 -0 -0 -0 -0 -0 -0 -0 -0 -0 -0 -0 -0 -0 -0 -0 -0 -0
-0 -0 -0 -0 -0 -0 -0 -0 -0 -0 -0 -0 -0 -0 -0 -0 -0 -0 -0 -0 -0 -0 -0 -0 -0 -0 -0 -0 -0 -0 -0 -0 -0 -0 -0 -0 -0 -0 -0 -0 -0 -0 -0 -0 -0
Wind_Speed
23 23 24 24 24 24 24 23 22 22 21 18 10 14 16 13 18 19 22 17 15 8 12 14 18 18 16 17 17 16 15 14 12 11 13 9 10 14 15 14 14 14 15 16 4
24 24 25 26 26 26 26 26 25 24 23 22 20 15 13 18 18 21 17 15 15 14 19 23 21 20 18 17 16 17 16 13 13 11 12 10 9 10 13 13 13 15 14 9 4
25 26 27 27 28 28 28 28 27 27 26 24 23 21 18 19 15 16 16 15 15 18 20 20 21 19 19 18 18 17 17 14 12 10 11 10 10 9 12 11 9 6 3 3 4
27 28 28 29 30 30 30 29 29 29 28 27 24 22 19 17 16 14 16 17 19 19 20 22 22 20 19 18 18 17 15 14 14 11 13 11 14 10 5 9 18 7 2 3 4
28 29 30 31 31 32 32 31 31 31 30 28 24 20 18 16 13 15 16 18 19 18 22 21 23 20 18 17 17 14 15 14 12 10 9 13 13 11 8 8 16 9 4 5 6
30 30 31 32 32 33 34 34 33 32 32 29 23 20 18 16 15 17 17 16 20 20 20 21 20 20 18 18 16 15 13 11 11 8 10 11 16 17 20 16 14 8 6 6 7
32 32 33 33 34 34 35 36 35 34 33 27 21 19 19 19 17 18 16 16 18 19 19 19 18 21 20 21 19 17 17 19 16 15 14 14 17 12 17 16 14 11 10 10 9
33 34 34 35 35 36 37 37 37 36 29 21 19 20 23 19 17 17 16 17 19 20 18 17 18 19 20 20 23 22 21 21 19 19 18 17 13 17 18 14 15 13 12 12 12
34 35 35 36 36 37 39 39 39 30 23 19 20 21 26 20 19 17 18 19 19 20 20 17 19 19 21 25 26 24 25 24 26 17 20 16 18 19 20 16 17 14 13 13 14
34 35 36 36 37 38 40 40 32 23 21 20 21 24 22 22 20 20 20 19 22 21 22 21 21 22 23 24 29 28 29 25 25 23 22 22 19 18 21 18 18 16 16 15 15
35 35 36 36 37 38 36 29 28 27 25 25 25 26 27 23 21 22 19 21 22 23 24 22 22 22 24 22 23 25 27 28 27 25 29 24 25 21 24 21 19 18 17 17 16
35 35 35 36 37 37 27 26 25 24 35 30 30 31 28 24 31 24 18 24 24 24 20 23 22 22 22 22 24 25 31 34 32 29 27 31 28 26 22 19 16 18 18 17 16
35 35 35 35 36 27 27 25 24 24 32 36 29 29 27 23 29 28 18 21 22 21 20 22 24 19 23 25 26 29 32 36 36 36 32 39 40 28 26 23 17 15 17 18 16
35 34 34 35 27 27 26 24 23 24 34 33 31 28 23 22 28 21 15 17 20 23 22 25 23 25 26 27 26 37 30 30 34 39 41 34 45 34 30 20 20 19 19 19 16
32 33 31 27 29 26 24 22 22 23 43 25 22 19 19 19 20 19 16 18 25 25 22 28 25 25 26 28 24 34 29 32 33 35 41 34 36 37 26 23 23 22 23 22 19
29 30 28 28 26 24 21 20 23 32 37 26 20 21 22 23 23 20 20 20 21 26 28 30 26 26 28 27 26 26 32 34 33 34 41 34 29 34 29 24 28 25 32 25 23
28 28 27 25 29 22 19 21 35 38 29 30 28 25 27 26 26 22 24 24 26 31 32 32 32 29 27 32 29 28 31 38 41 37 39 30 34 34 31 28 28 31 31 30 24
26 26 27 26 23 19 20 29 45 37 35 31 30 30 32 27 30 28 31 33 28 29 34 37 44 28 26 28 30 24 24 29 42 44 48 35 41 42 25 26 29 29 30 31 25
23 27 30 26 19 20 27 43 46 40 36 34 34 38 39 34 33 31 33 37 32 26 33 36 41 29 26 25 23 27 29 26 34 37 46 42 41 39 33 31 28 31 31 31 27
28 32 33 19 16 22 34 49 45 37 32 32 40 36 43 38 36 34 36 35 35 28 26 32 41 32 29 25 26 26 21 31 29 42 47 47 46 42 36 31 31 31 31 34 27
30 38 31 15 16 28 46 48 47 40 34 37 42 43 42 41 38 40 43 37 30 29 23 27 32 39 32 34 33 30 33 31 31 34 45 50 43 31 37 33 33 32 35 32 28
32 44 25 16 32 37 51 45 43 43 38 42 42 44 45 41 44 44 45 40 26 25 32 26 29 42 44 36 31 31 34 31 41 44 41 41 50 30 30 30 36 41 37 33 28
36 37 24 24 47 48 46 48 48 47 44 45 48 45 43 46 48 46 47 39 29 31 32 25 34 48 49 42 33 37 38 37 38 39 44 43 50 31 31 38 41 43 39 35 32
33 40 34 37 42 47 49 53 52 43 48 45 47 43 46 50 45 54 49 39 32 33 32 29 39 44 50 48 34 39 38 37 38 46 45 49 52 53 42 48 49 44 39 36 34
37 41 37 44 51 47 44 49 56 54 44 38 49 49 46 53 54 54 51 46 39 36 37 35 48 46 49 51 46 49 49 44 44 47 47 54 50 54 45 48 45 45 41 37 33
47 45 39 47 45 49 49 55 58 54 48 51 50 48 46 54 52 58 47 44 45 40 40 38 52 50 57 52 47 52 53 47 48 49 51 51 57 46 47 46 45 42 38 37 32
47 41 48 52 50 49 54 56 54 53 56 54 51 51 53 50 49 51 49 44 46 45 44 42 45 50 60 47 44 54 55 49 52 50 48 54 56 50 48 43 40 38 36 34 29
Wind_Direction
314 317 318 319 320 319 319 319 317 317 317 310 296 100 93 108 89 85 66 94 101 137 108 93 60 50 54 44 32 28 21 16 20 24 9 17 3 352 346 343 336 334 336 338 54
310 312 314 315 316 317 318 318 317 315 313 311 310 5 90 58 69 57 85 93 82 82 58 39 46 46 48 51 48 33 23 36 34 38 29 33 17 5 349 340 332 330 332 353 23
307 308 311 312 311 312 314 316 317 316 313 309 313 320 357 5 46 59 70 74 68 53 45 45 46 49 46 44 42 39 23 34 31 38 33 30 16 13 351 333 324 301 306 355 347
305 306 307 310 311 310 309 311 312 315 314 311 318 326 342 4 21 38 36 44 35 39 32 25 26 36 36 37 34 29 40 36 32 40 25 18 10 1 333 332 339 328 296 309 304
305 305 305 307 309 309 308 308 310 310 309 312 322 331 343 355 8 7 8 12 18 26 14 17 10 23 26 29 26 35 31 28 30 28 22 12 360 354 336 339 341 345 319 289 290
303 304 305 306 306 306 306 305 307 308 308 311 322 326 335 341 347 345 351 358 358 5 6 6 12 14 15 12 16 20 14 10 8 8 3 1 354 354 352 352 342 334 307 298 294
301 302 302 303 304 304 303 303 303 306 308 315 324 324 324 324 336 336 344 348 352 356 358 3 7 4 1 357 2 2 0 356 1 3 2 5 345 343 350 354 343 330 313 304 293
299 301 302 302 303 303 302 300 301 303 313 323 325 319 311 326 331 332 340 340 345 346 353 358 359 359 358 359 349 347 350 350 354 351 352 354 333 349 348 346 333 324 311 297 290
300 300 301 302 303 302 301 299 299 312 319 324 318 313 308 325 320 327 330 327 335 338 343 347 346 346 348 343 340 344 337 339 339 348 343 340 328 343 345 337 328 316 302 291 287
299 300 301 302 302 302 301 298 307 316 317 317 313 307 309 312 320 325 326 328 322 326 327 328 331 330 336 339 330 330 331 333 329 337 333 325 297 311 327 321 311 309 307 295 283
298 300 301 303 303 303 307 312 306 304 302 298 302 298 306 313 321 317 325 320 320 316 312 319 316 316 324 329 331 330 328 325 325 326 322 313 311 301 324 316 308 307 307 294 277
297 299 301 302 302 302 311 310 310 309 298 298 294 294 299 308 302 307 321 310 310 305 312 311 305 317 325 326 326 326 324 322 323 328 322 319 305 308 305 311 306 310 310 299 292
296 298 300 301 301 309 308 308 311 314 302 295 296 296 298 299 298 302 305 309 305 306 304 300 314 326 319 319 319 320 320 321 319 323 321 321 317 323 331 329 323 322 322 316 295
296 297 300 301 303 306 304 310 312 315 302 298 294 297 302 304 300 308 304 308 306 305 304 304 309 308 310 311 316 315 322 320 321 321 318 329 313 320 325 328 328 328 328 322 310
296 296 299 304 298 299 307 313 314 316 294 309 301 311 309 305 315 312 311 303 299 303 306 306 307 307 306 309 314 315 322 320 319 317 317 319 314 321 332 328 330 331 332 324 315
295 296 297 298 297 300 307 311 308 294 285 301 308 303 299 298 303 310 305 309 311 301 300 300 311 308 308 314 313 319 317 318 318 317 310 317 312 316 325 327 333 334 333 330 323
292 294 292 295 291 302 300 296 288 279 295 293 294 297 296 294 295 295 296 291 294 299 297 302 298 303 306 306 311 310 314 313 313 312 309 321 311 302 313 315 322 325 330 330 327
291 293 291 288 295 296 289 282 273 281 278 296 296 296 291 292 294 294 294 289 289 295 299 300 299 302 305 301 307 306 305 305 308 310 311 315 306 314 318 322 324 327 327 329 326
291 291 287 286 285 286 275 270 274 278 281 284 290 289 289 290 292 291 287 290 290 277 288 296 297 307 307 309 305 307 300 307 304 309 308 309 309 310 309 315 321 323 325 326 323
285 288 282 281 275 277 272 267 276 276 282 282 279 285 286 287 286 286 289 295 292 283 285 296 295 302 304 305 304 300 308 307 307 306 304 305 303 301 313 317 318 321 324 325 323
279 283 287 263 267 270 267 272 275 275 275 278 278 281 283 285 284 286 287 292 294 300 290 291 291 297 300 293 289 294 294 301 303 298 301 304 301 319 317 317 317 317 321 322 320
272 275 277 250 266 271 268 275 277 278 272 275 281 279 278 281 283 282 282 284 289 292 290 288 295 289 289 297 296 291 289 287 291 299 297 296 288 325 320 316 317 316 317 317 316
272 273 275 254 267 264 274 276 273 277 274 274 275 278 280 279 281 282 284 289 281 281 283 284 289 290 291 294 295 290 287 287 291 290 284 293 290 317 314 310 313 312 313 313 312
270 269 271 261 270 267 269 274 276 281 274 276 281 277 281 279 278 285 286 288 283 279 279 276 278 279 281 290 299 293 288 285 280 282 287 277 290 283 297 303 304 306 307 308 307
267 268 268 266 261 265 271 274 273 276 275 280 277 272 278 280 281 278 283 287 288 287 285 274 276 276 278 281 286 287 287 284 278 276 282 284 287 284 296 300 300 307 308 307 305
264 265 271 272 268 263 262 268 271 272 275 278 272 278 277 274 273 282 283 283 282 288 280 281 279 283 281 283 284 284 279 282 279 279 281 284 284 286 293 299 300 301 305 305 302
265 272 265 267 268 265 262 264 268 271 273 273 277 279 277 276 280 282 284 284 283 280 277 279 282 283 281 286 287 285 277 277 278 279 280 283 280 296 299 298 297 302 303 301 301